KN4RPA Weather Reports


Display with metric or nautical units.
time (UTC)temp
F
wind
direction
speed
MPH
gust
MPH
rain 1hr
in
rain 24hr
in
rain mn
in
humidity
%
barometer
mb
20240227113007 52 162 0.0 12.0 0.00 0.00 0.00 59 1013.2
20240227111505 51 169 1.0 8.0 0.00 0.00 0.00 59 1013.4
20240227110005 52 163 0.0 8.0 0.00 0.00 0.00 58 1013.3
20240227104503 51 176 3.0 7.0 0.00 0.00 0.00 59 1013.2
20240227103002 51 168 0.0 7.0 0.00 0.00 0.00 59 1013.2
20240227101506 51 180 0.0 9.0 0.00 0.00 0.00 60 1013.2
20240227100001 51 157 0.0 6.0 0.00 0.00 0.00 61 1013.2
20240227094603 51 157 0.0 5.0 0.00 0.00 0.00 62 1013.2
20240227093059 51 157 0.0 2.0 0.00 0.00 0.00 62 1013.1
20240227091558 50 157 0.0 2.0 0.00 0.00 0.00 63 1012.9
20240227090059 51 157 0.0 0.0 0.00 0.00 0.00 64 1012.8
20240227084556 51 157 1.0 5.0 0.00 0.00 0.00 65 1012.8
20240227083055 51 157 0.0 3.0 0.00 0.00 0.00 65 1012.9
20240227081555 51 157 0.0 5.0 0.00 0.00 0.00 66 1012.9
20240227080055 51 157 0.0 5.0 0.00 0.00 0.00 67 1012.9
20240227074553 50 157 2.0 10.0 0.00 0.00 0.00 69 1012.9
20240227073051 49 168 0.0 8.0 0.00 0.00 0.00 72 1013.0
20240227071609 48 165 0.0 5.0 0.00 0.00 0.00 75 1013.2
20240227070048 47 165 0.0 1.0 0.00 0.00 0.00 75 1013.2
20240227064545 47 165 0.0 0.0 0.00 0.00 0.00 72 1013.4
20240227063047 48 165 0.0 0.0 0.00 0.00 0.00 71 1013.4
20240227061542 49 165 0.0 0.0 0.00 0.00 0.00 70 1013.6
20240227060039 49 165 0.0 0.0 0.00 0.00 0.00 69 1013.7
20240227054538 50 165 0.0 0.0 0.00 0.00 0.00 69 1013.8
20240227053036 50 165 0.0 0.0 0.00 0.00 0.00 67 1013.8
20240227051536 51 165 0.0 0.0 0.00 0.00 0.00 67 1013.9
20240227050032 51 165 0.0 1.0 0.00 0.00 0.00 66 1014.1
20240227044530 51 165 0.0 0.0 0.00 0.00 0.00 65 1014.1
20240227043030 52 165 0.0 0.0 0.00 0.00 0.00 63 1014.2
20240227041529 53 165 0.0 0.0 0.00 0.00 0.00 62 1014.4
20240227040029 53 165 0.0 0.0 0.00 0.00 0.00 60 1014.6
20240227034534 54 165 0.0 1.0 0.00 0.00 0.00 59 1014.8
20240227033033 54 165 0.0 1.0 0.00 0.00 0.00 58 1014.9
20240227031527 55 165 0.0 1.0 0.00 0.00 0.00 56 1014.8
20240227030033 56 165 0.0 2.0 0.00 0.00 0.00 55 1014.6
20240227024526 56 165 0.0 5.0 0.00 0.00 0.00 54 1014.5
20240227023127 56 165 0.0 5.0 0.00 0.00 0.00 53 1014.4
20240227021525 57 165 0.0 5.0 0.00 0.00 0.00 52 1014.5
20240227020024 57 169 0.0 9.0 0.00 0.00 0.00 50 1014.3
20240227014523 58 172 1.0 5.0 0.00 0.00 0.00 49 1014.2
20240227013023 58 164 2.0 5.0 0.00 0.00 0.00 48 1014.1
20240227011531 58 164 2.0 8.0 0.00 0.00 0.00 47 1013.9
20240227010022 58 161 2.0 8.0 0.00 0.00 0.00 46 1014.0
20240227004542 59 161 2.0 6.0 0.00 0.00 0.00 45 1014.0
20240227003022 59 158 0.0 5.0 0.00 0.00 0.00 44 1013.9
20240227001534 59 157 0.0 3.0 0.00 0.00 0.00 44 1013.8
20240227000020 60 157 0.0 5.0 0.00 0.00 0.00 43 1013.7
20240226234530 60 156 0.0 1.0 0.00 0.00 0.00 42 1013.6
20240226233020 60 156 0.0 1.0 0.00 0.00 0.00 41 1013.7
20240226231523 61 156 0.0 2.0 0.00 0.00 0.00 40 1013.7
20240226230017 62 156 0.0 0.0 0.00 0.00 0.00 38 1013.4
20240226224526 63 156 0.0 8.0 0.00 0.00 0.00 36 1013.5
20240226223029 63 171 0.0 9.0 0.00 0.00 0.00 35 1013.3
20240226221517 63 155 0.0 9.0 0.00 0.00 0.00 35 1013.5
20240226220014 64 163 3.0 14.0 0.00 0.00 0.00 34 1013.5
20240226214518 64 184 0.0 11.0 0.00 0.00 0.00 33 1013.4
20240226213018 65 164 2.0 10.0 0.00 0.00 0.00 33 1013.1
20240226211513 65 162 2.0 10.0 0.00 0.00 0.00 31 1013.3
20240226210018 66 164 1.0 9.0 0.00 0.00 0.00 30 1013.1
20240226204511 65 165 1.0 7.0 0.00 0.00 0.00 30 1013.1
20240226203010 66 170 0.0 6.0 0.00 0.00 0.00 32 1013.0
20240226201509 66 165 2.0 8.0 0.00 0.00 0.00 31 1013.2
20240226200008 67 196 3.0 15.0 0.00 0.00 0.00 30 1013.2
20240226194508 66 170 2.0 6.0 0.00 0.00 0.00 29 1013.3
20240226193004 67 161 3.0 12.0 0.00 0.00 0.00 28 1013.7
20240226191504 67 186 0.0 8.0 0.00 0.00 0.00 28 1013.7
20240226190002 66 161 2.0 12.0 0.00 0.00 0.00 28 1013.6
20240226184638 66 173 0.0 5.0 0.00 0.00 0.00 29 1013.6
20240226183058 65 175 1.0 7.0 0.00 0.00 0.00 31 1013.9
20240226181606 66 153 1.0 9.0 0.00 0.00 0.00 29 1014.2
20240226180059 65 169 0.0 6.0 0.00 0.00 0.00 30 1014.6
20240226174550 64 169 0.0 8.0 0.00 0.00 0.00 33 1014.7
20240226173047 62 163 3.0 6.0 0.00 0.00 0.00 33 1015.2
20240226171547 62 163 3.0 6.0 0.00 0.00 0.00 34 1015.4
20240226170040 60 163 2.0 7.0 0.00 0.00 0.00 36 1015.6
20240226164537 59 163 0.0 7.0 0.00 0.00 0.00 40 1015.8
20240226163040 58 163 1.0 6.0 0.00 0.00 0.00 38 1016.1
20240226161531 57 163 1.0 7.0 0.00 0.00 0.00 40 1016.1
20240226160028 56 163 1.0 6.0 0.00 0.00 0.00 42 1016.1
20240226154525 55 163 0.0 2.0 0.00 0.00 0.00 45 1016.0
20240226153020 53 163 0.0 5.0 0.00 0.00 0.00 47 1016.2
20240226151519 52 163 1.0 6.0 0.00 0.00 0.00 48 1016.4
20240226150014 51 163 0.0 2.0 0.00 0.00 0.00 49 1016.5
20240226144510 49 158 0.0 9.0 0.00 0.00 0.00 53 1016.5
20240226143011 47 173 0.0 5.0 0.00 0.00 0.00 55 1016.5
20240226141503 46 173 1.0 7.0 0.00 0.00 0.00 57 1016.6
20240226140107 45 163 0.0 7.0 0.00 0.00 0.00 59 1016.5
20240226134557 44 160 1.0 8.0 0.00 0.00 0.00 62 1016.5
20240226133052 43 166 1.0 6.0 0.00 0.00 0.00 65 1016.4
20240226131548 41 166 1.0 7.0 0.00 0.00 0.00 69 1016.5
20240226130044 40 182 0.0 6.0 0.00 0.00 0.00 70 1016.5
20240226124543 39 164 3.0 6.0 0.00 0.00 0.00 71 1016.4
20240226123040 39 165 0.0 2.0 0.00 0.00 0.00 71 1016.3
20240226121536 39 165 0.0 1.0 0.00 0.00 0.00 70 1016.1
20240226120038 39 165 0.0 3.0 0.00 0.00 0.00 70 1015.7
20240226114537 39 165 0.0 0.0 0.00 0.00 0.00 69 1015.9